Clermont County, Batavia, OH

5:29 AM EST on December 10, 2019 (GMT -0500)
Clermont County, Batavia

Weather History for KI69 - October, 2019

Change the Weather History Date:

Tuesday, October 29, 2019

  Actual Average (WUND) Record (WUND)
Temperature  
Mean Temperature 52 °F -  
Max Temperature 59 °F - - (-1)
Min Temperature 46 °F - - (-1)
Degree Days  
Heating Degree Days 12    
Growing Degree Days 2 (Base 50)    
Moisture  
Dew Point 50 °F    
Average Humidity 89    
Maximum Humidity 99    
Minimum Humidity 71    
Precipitation  
Precipitation 0.00 in - - ()
Sea Level Pressure  
Sea Level Pressure 30.16 in    
Wind  
Wind Speed 2 mph (SW)    
Max Wind Speed 8 mph    
Max Gust Speed -    
Visibility 9 miles    
Events      
Averages and records for this station are not official NWS values.
T = Trace of Precipitation, MM = Missing Value Source: NWS Daily Summary

Daily Weather History Graph

Daily Weather History Graph

Search for Another Location

Airport or City:

Astronomy

Oct. 29, 2019 Rise Set
Actual Time 8:00 AM EDT 6:39 PM EDT
Civil Twilight 7:33 AM EDT 7:07 PM EDT
Nautical Twilight 7:01 AM EDT 7:38 PM EDT
Astronomical Twilight 6:30 AM EDT 8:09 PM EDT
Moon 9:32 AM EDT (10/29) 8:04 PM EDT (10/29)
Length of Visible Light 11h 33m
Length of Day
10h 38m
Waxing Crescent, 3% of the Moon is Illuminated
Oct 29
Waxing Crescent
Nov 4
First Quarter
Nov 12
Full
Nov 19
Last Quarter
Nov 26
New

Hourly Weather History & Observations

Time (EDT) Temp. Dew Point Humidity Pressure Visibility Wind Dir Wind Speed Gust Speed Precip Events Conditions
12:19 AM 50.2 °F 49.1 °F 96% 30.06 in 10.0 mi Calm Calm - N/A   Clear
12:37 AM 50.4 °F 48.6 °F 94% 30.06 in 10.0 mi Calm Calm - N/A   Clear
12:55 AM 50.4 °F 49.1 °F 95% 30.06 in 10.0 mi Calm Calm - N/A   Clear
1:16 AM 50.7 °F 49.1 °F 94% 30.06 in 10.0 mi SW 3.5 mph - N/A   Mostly Cloudy
1:35 AM 51.1 °F 48.9 °F 92% 30.06 in 10.0 mi West 4.6 mph - N/A   Mostly Cloudy
1:59 AM 52.5 °F 49.6 °F 90% 30.06 in 10.0 mi SW 3.5 mph - N/A   Scattered Clouds
2:17 AM 49.1 °F 48.0 °F 96% 30.06 in 10.0 mi Calm Calm - N/A   Clear
2:35 AM 50.7 °F 48.9 °F 94% 30.06 in 10.0 mi Calm Calm - N/A   Clear
2:55 AM 48.4 °F 47.7 °F 97% 30.06 in 10.0 mi Calm Calm - N/A   Clear
3:16 AM 48.2 °F 47.5 °F 97% 30.07 in 10.0 mi Calm Calm - N/A   Scattered Clouds
3:39 AM 48.2 °F 48.0 °F 99% 30.06 in 7.0 mi Calm Calm - N/A   Scattered Clouds
3:57 AM 48.0 °F 47.7 °F 99% 30.06 in 2.5 mi Calm Calm - N/A   Clear
4:15 AM 47.3 °F 46.8 °F 98% 30.06 in 10.0 mi Calm Calm - N/A   Clear
4:39 AM 48.2 °F 47.7 °F 98% 30.07 in 7.0 mi Calm Calm - N/A   Clear
4:57 AM 46.9 °F 46.6 °F 99% 30.08 in 10.0 mi West 3.5 mph - N/A   Mostly Cloudy
5:15 AM 50.7 °F 50.0 °F 97% 30.09 in 7.0 mi West 4.6 mph - N/A   Overcast
5:35 AM 51.3 °F 50.2 °F 96% 30.09 in 7.0 mi WSW 3.5 mph - N/A   Overcast
5:55 AM 50.9 °F 50.0 °F 97% 30.09 in 7.0 mi Calm Calm - N/A   Overcast
6:19 AM 51.4 °F 50.5 °F 97% 30.11 in 7.0 mi Calm Calm - N/A   Overcast
6:37 AM 51.8 °F 50.5 °F 95% 30.11 in 7.0 mi Calm Calm - N/A   Overcast
6:55 AM 52.0 °F 50.9 °F 96% 30.11 in 7.0 mi Calm Calm - N/A   Overcast
7:16 AM 50.2 °F 49.8 °F 99% 30.11 in 4.0 mi Calm Calm - N/A   Overcast
7:35 AM 50.4 °F 50.0 °F 99% 30.12 in 5.0 mi Calm Calm - N/A   Mostly Cloudy
7:59 AM 50.0 °F 49.6 °F 99% 30.13 in 3.0 mi Calm Calm - N/A   Scattered Clouds
8:17 AM 49.5 °F 49.3 °F 99% 30.13 in 2.5 mi Calm Calm - N/A   Overcast
8:35 AM 50.2 °F 50.0 °F 99% 30.14 in 4.0 mi South 3.5 mph - N/A   Overcast
8:55 AM 51.1 °F 50.9 °F 99% 30.15 in 5.0 mi Calm Calm - N/A   Overcast
9:16 AM 51.8 °F 51.1 °F 97% 30.16 in 5.0 mi Calm Calm - N/A   Overcast
9:39 AM 52.7 °F 51.6 °F 96% 30.17 in 7.0 mi Calm Calm - N/A   Overcast
9:57 AM 53.6 °F 51.8 °F 94% 30.17 in 10.0 mi Calm Calm - N/A   Overcast
10:15 AM 54.0 °F 52.0 °F 93% 30.18 in 10.0 mi Calm Calm - N/A   Overcast
10:35 AM 54.5 °F 52.0 °F 91% 30.18 in 10.0 mi WSW 5.8 mph - N/A   Overcast
10:55 AM 54.9 °F 51.8 °F 89% 30.19 in 10.0 mi SW 5.8 mph - N/A   Overcast
11:19 AM 55.4 °F 51.1 °F 85% 30.20 in 10.0 mi SW 5.8 mph - N/A   Overcast
11:55 AM 55.6 °F 51.1 °F 85% 30.21 in 10.0 mi WSW 6.9 mph - N/A   Overcast
12:15 PM 55.9 °F 51.3 °F 84% 30.21 in 10.0 mi WSW 5.8 mph - N/A   Overcast
12:35 PM 56.5 °F 50.9 °F 82% 30.21 in 10.0 mi SW 8.1 mph - N/A   Overcast
12:59 PM 57.0 °F 51.1 °F 81% 30.21 in 10.0 mi SW 6.9 mph - N/A   Overcast
1:17 PM 57.2 °F 51.1 °F 80% 30.21 in 10.0 mi SW 5.8 mph - N/A   Overcast
1:35 PM 57.2 °F 50.9 °F 79% 30.20 in 10.0 mi SSW 5.8 mph - N/A   Overcast
1:55 PM 57.4 °F 50.9 °F 79% 30.19 in 10.0 mi SSW 4.6 mph - N/A   Overcast
2:15 PM 58.1 °F 51.1 °F 77% 30.19 in 10.0 mi SSW 6.9 mph - N/A   Overcast
2:38 PM 58.1 °F 50.9 °F 77% 30.19 in 10.0 mi SSW 5.8 mph - N/A   Overcast
3:35 PM 59.4 °F 50.7 °F 73% 30.18 in 10.0 mi SSW 5.8 mph - N/A   Overcast
3:55 PM 59.0 °F 50.7 °F 74% 30.18 in 10.0 mi SSE 5.8 mph - N/A   Overcast
4:18 PM 59.0 °F 50.9 °F 74% 30.20 in 10.0 mi SSW 5.8 mph - N/A   Overcast
4:36 PM 58.6 °F 50.9 °F 75% 30.20 in 10.0 mi SSW 5.8 mph - N/A   Overcast
4:55 PM 59.0 °F 50.7 °F 74% 30.20 in 10.0 mi SW 5.8 mph - N/A   Overcast
5:15 PM 59.0 °F 49.6 °F 71% 30.21 in 10.0 mi SSW 3.5 mph - N/A   Overcast
5:35 PM 58.8 °F 50.0 °F 73% 30.21 in 10.0 mi SW 3.5 mph - N/A   Overcast
5:58 PM 58.6 °F 50.2 °F 73% 30.20 in 10.0 mi Calm Calm - N/A   Overcast
6:16 PM 58.5 °F 50.2 °F 74% 30.21 in 10.0 mi SSW 3.5 mph - N/A   Overcast
6:35 PM 58.3 °F 50.2 °F 74% 30.21 in 10.0 mi Calm Calm - N/A   Overcast
6:55 PM 58.1 °F 50.2 °F 75% 30.21 in 10.0 mi Calm Calm - N/A   Overcast
7:15 PM 57.6 °F 50.4 °F 77% 30.21 in 10.0 mi South 3.5 mph - N/A   Overcast
7:38 PM 57.7 °F 50.0 °F 75% 30.21 in 10.0 mi Calm Calm - N/A   Overcast
7:56 PM 56.1 °F 50.7 °F 82% 30.21 in 10.0 mi Calm Calm - N/A   Overcast
8:15 PM 56.3 °F 50.5 °F 81% 30.21 in 10.0 mi Calm Calm - N/A   Overcast
8:35 PM 55.4 °F 50.5 °F 84% 30.21 in 10.0 mi Calm Calm - N/A   Mostly Cloudy
8:55 PM 54.5 °F 50.0 °F 85% 30.21 in 10.0 mi Calm Calm - N/A   Scattered Clouds
9:18 PM 54.1 °F 49.8 °F 85% 30.21 in 10.0 mi Calm Calm - N/A   Clear
9:36 PM 51.6 °F 50.0 °F 94% 30.21 in 10.0 mi Calm Calm - N/A   Clear
9:55 PM 52.0 °F 49.3 °F 90% 30.21 in 10.0 mi Calm Calm - N/A   Clear
10:15 PM 51.6 °F 49.3 °F 92% 30.22 in 10.0 mi Calm Calm - N/A   Clear
10:35 PM 50.4 °F 49.3 °F 96% 30.22 in 10.0 mi Calm Calm - N/A   Clear
10:58 PM 50.0 °F 49.1 °F 97% 30.22 in 10.0 mi Calm Calm - N/A   Clear
11:16 PM 49.3 °F 48.6 °F 97% 30.22 in 7.0 mi Calm Calm - N/A   Clear
11:35 PM 48.9 °F 48.4 °F 98% 30.21 in 7.0 mi Calm Calm - N/A   Clear
11:55 PM 48.4 °F 47.8 °F 98% 30.21 in 5.0 mi Calm Calm - N/A   Clear